Weather History for Van, Turkey

Change the Weather History Date:

Wednesday, September 5, 2012

  Actual Average Record
Temperature  
Mean Temperature 62 °F -  
Max Temperature 75 °F 73 °F 86 °F (2010)
Min Temperature 50 °F 48 °F 50 °F (2000)
Degree Days  
Heating Degree Days 2    
Growing Degree Days 12 (Base 50)    
Moisture  
Dew Point 49 °F    
Average Humidity 57    
Maximum Humidity 87    
Minimum Humidity 31    
Precipitation  
Precipitation 0.00 in 0.03 in - ()
Sea Level Pressure  
Sea Level Pressure 30.06 in    
Wind  
Wind Speed 5 mph ()    
Max Wind Speed 12 mph    
Max Gust Speed -    
Visibility 6.3 miles    
Events      
Averages and records for this station are not official NWS values.
T = Trace of Precipitation, MM = Missing Value Source: Averaged Metar Reports

Daily Weather History Graph

Daily Weather History Graph

Search for Another Location

Airport:

Trip Planner

Search our weather history database for the weather conditions in past years. The results will help you decide how hot, cold, wet, or windy it might be!

Date:

Astronomy

Sep. 05, 2012 Rise Set
Actual Time 5:39 AM EEST 6:30 PM EEST
Civil Twilight 5:12 AM EEST 6:57 PM EEST
Nautical Twilight 4:40 AM EEST 7:28 PM EEST
Astronomical Twilight 4:07 AM EEST 8:01 PM EEST
Moon 8:50 PM EEST (9/5) 10:18 AM EEST (9/5)
Length of Visible Light 13h 44m
Length of Day
12h 50m
Waning Gibbous, 78% of the Moon is Illuminated
Sep 5
Waning Gibbous
Sep 8
Last Quarter
Sep 16
New
Sep 22
First Quarter
Sep 30
Full

Hourly Weather History & Observations

Time (EEST) Temp. Dew Point Humidity Pressure Visibility Wind Dir Wind Speed Gust Speed Precip Events Conditions
12:50 AM 59.0 °F 48.2 °F 67% 30.06 in 6.2 mi ENE 6.9 mph - N/A   Partly Cloudy
1:50 AM 59.0 °F 48.2 °F 67% 30.06 in 6.2 mi NE 9.2 mph - N/A   Partly Cloudy
3:00 AM 57 °F 47 °F 59%  in 7 mi East 4.6 mph - -   Scattered Clouds
3:50 AM 53.6 °F 46.4 °F 77% 30.06 in 6.2 mi Variable 2.3 mph - N/A   Partly Cloudy
4:50 AM 51.8 °F 46.4 °F 82% 30.09 in 6.2 mi East 3.5 mph - N/A   Partly Cloudy
5:50 AM 50.0 °F 46.4 °F 87% 30.09 in 6.2 mi East 3.5 mph - N/A   Partly Cloudy
6:50 AM 59.0 °F 51.8 °F 77% 30.09 in - Calm Calm - N/A   Clear
7:50 AM 66.2 °F 48.2 °F 52% 30.09 in - ENE 5.8 mph - N/A   Clear
8:50 AM 69.8 °F 48.2 °F 46% 30.09 in - WNW 4.6 mph - N/A   Clear
9:00 AM 70 °F 49 °F 36%  in 6 mi WNW 4.6 mph - -  
9:50 AM 69.8 °F 48.2 °F 46% 30.09 in 6.2 mi WNW 5.8 mph - N/A   Partly Cloudy
10:50 AM 71.6 °F 51.8 °F 50% 30.09 in 6.2 mi West 8.1 mph - N/A   Partly Cloudy
11:50 AM 71.6 °F 51.8 °F 50% 30.06 in 6.2 mi West 8.1 mph - N/A   Partly Cloudy
12:50 PM 73.4 °F 51.8 °F 47% 30.06 in 6.2 mi West 6.9 mph - N/A   Partly Cloudy
1:50 PM 75.2 °F 53.6 °F 47% 30.04 in 6.2 mi WNW 8.1 mph - N/A   Partly Cloudy
2:50 PM 75.2 °F 55.4 °F 50% 30.04 in 6.2 mi West 11.5 mph - N/A   Partly Cloudy
3:00 PM 74 °F 55 °F 41%  in 6 mi West 11.5 mph - -   Scattered Clouds
3:50 PM 75.2 °F 53.6 °F 47% 30.04 in - West 8.1 mph - N/A   Clear
4:50 PM 73.4 °F 51.8 °F 47% 30.04 in - WSW 6.9 mph - N/A   Clear
5:50 PM 73.4 °F 41.0 °F 31% 30.04 in - WSW 4.6 mph - N/A   Clear
6:50 PM 64.4 °F 48.2 °F 56% 30.04 in - SE 3.5 mph - N/A   Clear
7:50 PM 59.0 °F 46.4 °F 63% 30.06 in - ESE 2.3 mph - N/A   Clear
8:50 PM 59.0 °F 46.4 °F 63% 30.06 in - East 1.2 mph - N/A   Clear
9:00 PM 59 °F 46 °F 51%  in 7 mi East 1.2 mph - -  
9:50 PM 57.2 °F 46.4 °F 67% 30.06 in - East 1.2 mph - N/A   Clear
10:50 PM 57.2 °F 46.4 °F 67% 30.06 in - Calm Calm - N/A   Clear
11:50 PM 57.2 °F 41.0 °F 55% 30.06 in - Calm Calm - N/A   Clear